Simultaneous Nadir Overpasses (SNOs) Predictions

Prediction of SNOs between GOES-16 and LANDSAT-8 Satellite Orbit:

Table of predicted SNOs for the next 14.0 days since TLE Epoch: 4/30/2022
Index Date Time (GOES-16) GOES-16 Lat,Lon LANDSAT-8 Lat,Lon Distance(km) Time Diff (sec)
1 05/01/2022 15:02:51 0.06, -75.20 -0.54, -72.44 314.38 80
2 05/02/2022 03:24:15 -0.06, -75.18 -0.60, -77.62 277.57 80
3 05/04/2022 03:09:25 -0.06, -75.18 0.03, -74.67 58.55 80
4 05/06/2022 02:57:15 -0.05, -75.19 0.69, -71.71 395.04 80
5 05/06/2022 15:18:30 0.05, -75.21 0.39, -76.87 189.63 80
6 05/08/2022 15:09:00 0.04, -75.22 -0.23, -73.92 147.84 80
7 05/09/2022 03:30:23 -0.04, -75.21 -0.89, -79.10 443.38 80
8 05/10/2022 14:56:49 0.04, -75.23 -0.88, -70.96 486.17 80
9 05/11/2022 03:18:12 -0.03, -75.23 -0.23, -76.15 104.81 80
10 05/13/2022 03:03:20 -0.03, -75.25 0.39, -73.19 234.57 80
11 05/13/2022 15:24:36 0.03, -75.27 0.67, -78.35 349.57 80
